FENGYUN 1C DEB, 36696

Orbit data source: Space-Track

FENGYUN 1C DEB, 36696 is space debris in SSO originally from a launch on Mon, 10 May 1999 UTC launched from the Taiyaun Space Center, China (TSC). Fengyun 1C debris stems from the Chinese weather satellite Fengyun-1C, which was intentionally destroyed by a Chinese anti-satellite missile in 2007. This event dramatically increased the amount of space debris, with thousands of trackable fragments posing hazards to satellites and human spaceflight. The Fengyun 1C debris cloud has become a focal point in discussions about space sustainability and the need for international regulations to prevent the creation of new debris.

Loading next visibility...
Identifier
36696, 1999-025DZS
Orbit
SSO
Country
Flag of CNCN / PRC
Related business
Manufacturer
Unknown
Mission
Spacecraft
Bus & Motor
Unknown
Mass
Unknown
Launch date (UTC)
1999-05-10 (27 years ago)
Launch vehicle
Unknown
Launch site
Taiyaun Space Center, China (TSC)
Object type
Payload
Rocket body
Debris
Shape & HBR
Unknown shape, 0.1 m
Radar Cross Section
Small (<0.1 m²)

Expand to show TLE details & history
Last TLE update: 2 days ago

TLE from 2 days ago
0 FENGYUN 1C DEB
1 36696U 99025DZS 26117.31731963  .00005031  00000-0  15771-2 0  9997
2 36696  98.9838 138.0355 0020463 285.9905  73.9028 14.40949122663476
Epoch: 2026-04-27T07:36Z
TLE epoch observation values (Epoch: 2026-04-27T07:36:56.416Z)
Latitude
Longitude
168.49171°
Altitude
754.278 km
Speed
7.479 km/s
True Right ascension
09h 12m 08s
True Declination
0° 00' 00"
Sunlit
Object was in daylight at epoch
Visualization orbit readout
Latitude
Unknown
Longitude
Unknown
Altitude
Unknown
Speed
Unknown
Apparent Right ascension
Unknown
Apparent Declination
Unknown
Sunlit
N/A
Visualization observer readout
Local Sidereal Time
08:00:22
Azimuth
Unknown
Elevation
Unknown
Doppler factor
Unknown
Orbital elements
Apogee altitude
767.1 km
Perigee altitude
737.917 km
Semi-major axis
7,130.645 km
Eccentricity
0.00205
Inclination
98.9838°
RAAN
138.0355°
Arg. of periapsis
285.9905°
True anomaly
74.12825°
Mean anomaly
73.9028°
Eccentric anomaly
74.01551°
Mean motion
3.60454 °/min
Orbital period
99.87 mins
BSTAR
0.0015771
Loading maneuver chart data...
Computing Atmospheric mass density...

Documentation

Showing up to 5 results
|